SP7QPD-1 Weather Reports


time (UTC)temp
C
wind
direction
speed
KPH
gust
KPH
rain 1hr
cm
rain 24hr
cm
rain mn
cm
humidity
%
barometer
mb
20260506224334 15 0 90.1 120.7 0.00 0.00 0.00 71 1003.3
20260506223334 16 0 90.1 120.7 0.00 0.00 0.00 71 1003.3
20260506222334 16 0 90.1 120.7 0.00 0.00 0.00 69 1003.5
20260506221334 16 0 90.1 120.7 0.00 0.00 0.00 68 1003.3
20260506220334 16 45 90.1 120.7 0.00 0.00 0.00 68 1003.3
20260506215334 16 0 90.1 120.7 0.00 0.00 0.00 68 1002.9
20260506214333 16 22 90.1 120.7 0.00 0.00 0.00 67 1002.8
20260506213333 16 0 90.1 120.7 0.00 0.00 0.00 67 1002.9
20260506212333 16 0 90.1 120.7 0.00 0.00 0.00 67 1003.1
20260506211333 16 0 90.1 120.7 0.00 0.00 0.00 67 1003.2
20260506210333 16 0 90.1 120.7 0.00 0.00 0.00 66 1003.0
20260506205333 16 0 90.1 120.7 0.00 0.00 0.00 66 1003.0
20260506204333 16 0 90.1 120.7 0.00 0.00 0.00 65 1003.1
20260506203333 16 45 90.1 120.7 0.00 0.00 0.00 65 1003.2
20260506202333 16 0 90.1 120.7 0.00 0.00 0.00 65 1003.1
20260506201333 16 0 90.1 120.7 0.00 0.00 0.00 63 1003.1
20260506200333 16 22 90.1 120.7 0.00 0.00 0.00 63 1003.0
20260506195332 17 45 90.1 120.7 0.00 0.00 0.00 63 1003.1
20260506194332 17 0 90.1 120.7 0.00 0.00 0.00 62 1003.1
20260506193332 17 0 90.1 120.7 0.00 0.00 0.00 60 1003.1
20260506192332 17 0 90.1 120.7 0.00 0.00 0.00 59 1002.9
20260506191332 17 0 90.1 120.7 0.00 0.00 0.00 59 1002.9
20260506190332 18 0 90.1 120.7 0.00 0.00 0.00 60 1002.9
20260506185332 18 0 90.1 120.7 0.00 0.00 0.00 57 1002.7
20260506184332 19 0 90.1 120.7 0.00 0.00 0.00 56 1002.8
20260506183332 19 0 90.1 120.7 0.00 0.00 0.00 55 1002.5
20260506182332 20 0 90.1 120.7 0.00 0.00 0.00 55 1002.4
20260506181332 20 0 90.1 120.7 0.00 0.00 0.00 54 1002.5
20260506180332 20 0 90.1 120.7 0.00 0.00 0.00 53 1002.4
20260506175331 21 202 90.1 120.7 0.00 0.00 0.00 53 1002.2
20260506174331 21 0 90.1 120.7 0.00 0.00 0.00 51 1002.1
20260506173331 21 0 90.1 120.7 0.00 0.00 0.00 50 1002.2
20260506172331 22 0 90.1 120.7 0.00 0.00 0.00 50 1002.3
20260506171331 22 0 90.1 120.7 0.00 0.00 0.00 49 1002.2
20260506170331 22 0 90.1 120.7 0.00 0.00 0.00 48 1002.3
20260506165331 22 0 90.1 120.7 0.00 0.00 0.00 47 1002.4
20260506164331 23 0 90.1 120.7 0.00 0.00 0.00 47 1002.3
20260506163331 23 0 90.1 120.7 0.00 0.00 0.00 47 1002.3
20260506162331 23 0 90.1 120.7 0.00 0.00 0.00 46 1002.2
20260506161331 23 0 90.1 120.7 0.00 0.00 0.00 45 1002.4
20260506160330 23 0 90.1 120.7 0.00 0.00 0.00 45 1002.4
20260506155330 23 0 90.1 120.7 0.00 0.00 0.00 44 1002.4
20260506154330 24 0 90.1 120.7 0.00 0.00 0.00 44 1002.5
20260506153330 25 0 90.1 120.7 0.00 0.00 0.00 43 1002.6
20260506152330 25 0 90.1 120.7 0.00 0.00 0.00 42 1002.5
20260506151330 25 0 90.1 120.7 0.00 0.00 0.00 42 1002.4
20260506150330 25 0 90.1 120.7 0.00 0.00 0.00 42 1002.5
20260506145330 25 0 90.1 120.7 0.00 0.00 0.00 43 1002.5
20260506144330 25 0 90.1 120.7 0.00 0.00 0.00 43 1002.5
20260506143330 25 0 90.1 120.7 0.00 0.00 0.00 42 1002.5
20260506142330 25 0 90.1 120.7 0.00 0.00 0.00 43 1002.6
20260506141330 25 0 90.1 120.7 0.00 0.00 0.00 43 1002.7
20260506140330 25 0 90.1 120.7 0.00 0.00 0.00 43 1002.7
20260506135329 25 0 90.1 120.7 0.00 0.00 0.00 42 1002.5
20260506134329 26 0 90.1 120.7 0.00 0.00 0.00 42 1002.6
20260506133329 25 0 90.1 120.7 0.00 0.00 0.00 43 1002.5
20260506132329 25 0 90.1 120.7 0.00 0.00 0.00 43 1002.5
20260506131329 25 0 90.1 120.7 0.00 0.00 0.00 44 1002.8
20260506130329 25 0 90.1 120.7 0.00 0.00 0.00 44 1002.8
20260506125329 24 0 90.1 120.7 0.00 0.00 0.00 45 1002.5
20260506124329 25 0 90.1 120.7 0.00 0.00 0.00 44 1002.8
20260506123329 25 0 90.1 120.7 0.00 0.00 0.00 44 1002.9
20260506122329 25 0 90.1 120.7 0.00 0.00 0.00 45 1002.8
20260506121329 24 0 90.1 120.7 0.00 0.00 0.00 46 1003.0
20260506120328 24 0 90.1 120.7 0.00 0.00 0.00 46 1003.0
20260506115328 23 0 90.1 120.7 0.00 0.00 0.00 47 1003.0
20260506114328 23 0 90.1 120.7 0.00 0.00 0.00 48 1002.9
20260506113328 23 0 90.1 120.7 0.00 0.00 0.00 49 1002.8
20260506112328 23 0 90.1 120.7 0.00 0.00 0.00 50 1003.0
20260506111328 22 45 90.1 120.7 0.00 0.00 0.00 51 1003.2
20260506110328 22 0 90.1 120.7 0.00 0.00 0.00 52 1003.0
20260506105328 22 45 90.1 120.7 0.00 0.00 0.00 51 1003.2
20260506104328 22 0 90.1 120.7 0.00 0.00 0.00 51 1003.1
20260506103328 22 0 90.1 120.7 0.00 0.00 0.00 50 1003.1
20260506102328 22 22 90.1 120.7 0.00 0.00 0.00 50 1003.0
20260506101327 22 0 90.1 120.7 0.00 0.00 0.00 50 1003.2
20260506100327 22 0 90.1 120.7 0.00 0.00 0.00 51 1003.0
20260506095327 22 0 90.1 120.7 0.00 0.00 0.00 52 1002.9
20260506094327 21 0 90.1 120.7 0.00 0.00 0.00 53 1003.0
20260506093327 21 0 90.1 120.7 0.00 0.00 0.00 53 1003.0
20260506092327 21 0 90.1 120.7 0.00 0.00 0.00 54 1003.0
20260506091327 22 0 90.1 120.7 0.00 0.00 0.00 53 1003.1
20260506090327 21 0 90.1 120.7 0.00 0.00 0.00 54 1002.9
20260506085327 21 0 90.1 120.7 0.00 0.00 0.00 54 1002.8
20260506084327 21 0 90.1 120.7 0.00 0.00 0.00 55 1002.9
20260506083327 20 0 90.1 120.7 0.00 0.00 0.00 56 1002.8
20260506082327 21 0 90.1 120.7 0.00 0.00 0.00 56 1002.8
20260506081326 20 0 90.1 120.7 0.00 0.00 0.00 57 1002.7
20260506080326 20 0 90.1 120.7 0.00 0.00 0.00 58 1002.8
20260506073326 18 0 90.1 120.7 0.00 0.00 0.00 61 1002.7
20260506072326 17 0 90.1 120.7 0.00 0.00 0.00 64 1002.5
20260506071326 17 0 90.1 120.7 0.00 0.00 0.00 63 1002.5
20260506070326 17 0 90.1 120.7 0.00 0.00 0.00 64 1002.5
20260506062326 15 0 90.1 120.7 0.00 0.00 0.00 67 1002.6
20260506061325 15 0 90.1 120.7 0.00 0.00 0.00 68 1002.5
20260506060325 14 0 90.1 120.7 0.00 0.00 0.00 69 1002.4
20260506051325 10 0 90.1 120.7 0.00 0.00 0.00 72 1002.8
20260506050325 10 22 90.1 120.7 0.00 0.00 0.00 72 1002.8
20260506044325 9 0 90.1 120.7 0.00 0.00 0.00 71 1002.6
20260506043324 9 0 90.1 120.7 0.00 0.00 0.00 70 1002.8
20260506042324 8 0 90.1 120.7 0.00 0.00 0.00 71 1002.8
20260506041324 8 0 90.1 120.7 0.00 0.00 0.00 70 1002.8
20260506040324 8 0 90.1 120.7 0.00 0.00 0.00 70 1002.7
20260506035324 8 0 90.1 120.7 0.00 0.00 0.00 70 1002.8
20260506034324 8 0 90.1 120.7 0.00 0.00 0.00 70 1002.6
20260506033324 8 0 90.1 120.7 0.00 0.00 0.00 70 1002.6
20260506032324 8 0 90.1 120.7 0.00 0.00 0.00 70 1002.6
20260506031324 9 0 90.1 120.7 0.00 0.00 0.00 68 1002.8
20260506030324 9 22 90.1 120.7 0.00 0.00 0.00 68 1002.8
20260506025324 9 22 90.1 120.7 0.00 0.00 0.00 68 1002.8
20260506024324 9 22 90.1 120.7 0.00 0.00 0.00 68 1002.8
20260506023323 10 0 90.1 120.7 0.00 0.00 0.00 67 1003.0
20260506022323 10 0 90.1 120.7 0.00 0.00 0.00 67 1003.0
20260506021323 10 0 90.1 120.7 0.00 0.00 0.00 67 1002.9
20260506020323 10 0 90.1 120.7 0.00 0.00 0.00 66 1003.0
20260506015323 10 0 90.1 120.7 0.00 0.00 0.00 66 1003.0
20260506014323 10 0 90.1 120.7 0.00 0.00 0.00 66 1003.0
20260506013323 10 22 90.1 120.7 0.00 0.00 0.00 66 1003.0
20260506012323 10 0 90.1 120.7 0.00 0.00 0.00 66 1002.9
20260506011323 10 0 90.1 120.7 0.00 0.00 0.00 65 1003.0
20260506010323 10 0 90.1 120.7 0.00 0.00 0.00 64 1003.0
20260506005323 10 0 90.1 120.7 0.00 0.00 0.00 64 1003.0
20260506004323 10 0 90.1 120.7 0.00 0.00 0.00 63 1002.9
20260506003322 10 0 90.1 120.7 0.00 0.00 0.00 63 1003.1
20260506002322 11 0 90.1 120.7 0.00 0.00 0.00 62 1002.9
20260506001322 11 0 90.1 120.7 0.00 0.00 0.00 62 1003.1
20260506000323 11 0 90.1 120.7 0.00 0.00 0.00 63 1003.2
20260505235322 11 0 90.1 120.7 0.00 0.00 0.00 63 1003.0
20260505234322 11 0 90.1 120.7 0.00 0.00 0.00 63 1003.3
20260505233322 11 0 90.1 120.7 0.00 0.00 0.00 62 1003.3
20260505232322 11 0 90.1 120.7 0.00 0.00 0.00 61 1003.5
20260505231322 11 0 90.1 120.7 0.00 0.00 0.00 60 1003.4
20260505230322 11 0 90.1 120.7 0.00 0.00 0.00 59 1003.5
20260505225322 12 0 90.1 120.7 0.00 0.00 0.00 59 1003.5